FW6321 Weather Reports


time (UTC)temp
F
wind
direction
speed
knots
gust
knots
rain 1hr
in
rain 24hr
in
rain mn
in
humidity
%
barometer
mb
20260504210315 56 325 7.0 13.9 0.00 0.18 0.18 93 1014.4
20260504205816 56 347 6.1 13.0 0.00 0.18 0.18 93 1014.3
20260504205318 56 64 6.1 13.0 0.00 0.18 0.18 93 1014.4
20260504204900 56 310 5.2 12.2 0.00 0.18 0.18 93 1014.4
20260504203812 56 325 6.1 12.2 0.00 0.18 0.18 92 1014.4
20260504203313 56 330 5.2 12.2 0.00 0.18 0.18 92 1014.4
20260504202811 56 335 5.2 12.2 0.00 0.18 0.18 92 1014.4
20260504202350 56 295 5.2 9.6 0.00 0.18 0.18 92 1014.3
20260504201436 56 6 6.1 13.0 0.00 0.18 0.18 92 1014.3
20260504195807 56 26 7.8 15.6 0.00 0.18 0.18 92 1014.2
20260504195316 56 0 7.8 15.6 0.00 0.18 0.18 93 1014.2
20260504194931 57 325 7.0 15.6 0.00 0.18 0.18 93 1014.1
20260504193808 57 344 7.0 13.0 0.00 0.18 0.18 93 1014.1
20260504193306 57 14 7.0 13.0 0.00 0.18 0.18 93 1014.1
20260504192906 57 9 7.8 13.0 0.00 0.18 0.18 93 1014.1
20260504191805 57 10 7.0 16.5 0.00 0.18 0.18 92 1014.0
20260504191306 58 341 6.1 11.3 0.00 0.18 0.18 93 1013.9
20260504190806 58 0 6.1 12.2 0.00 0.18 0.18 93 1013.8
20260504190305 58 341 6.1 13.0 0.00 0.18 0.18 93 1013.7
20260504185806 58 16 7.0 13.0 0.00 0.18 0.18 93 1013.7
20260504185304 58 346 6.1 11.3 0.00 0.18 0.18 93 1013.7
20260504184807 58 325 5.2 11.3 0.00 0.18 0.18 93 1013.7
20260504184303 58 335 6.1 13.0 0.00 0.18 0.18 93 1013.7
20260504183802 58 7 6.1 13.0 0.00 0.19 0.18 93 1013.7
20260504183302 58 349 6.1 13.0 0.00 0.20 0.18 93 1013.7
20260504182804 58 316 6.1 13.0 0.00 0.20 0.18 93 1013.6
20260504182334 59 10 6.1 11.3 0.00 0.20 0.18 93 1013.7
20260504181304 59 13 7.0 13.9 0.00 0.20 0.18 93 1013.6
20260504180804 59 330 7.0 13.0 0.00 0.20 0.18 93 1013.5
20260504180304 59 343 6.1 11.3 0.00 0.20 0.18 94 1013.5
20260504175803 59 335 6.1 11.3 0.00 0.20 0.18 94 1013.4
20260504175304 60 23 5.2 11.3 0.00 0.20 0.18 94 1013.5
20260504174804 60 353 5.2 9.6 0.00 0.20 0.18 94 1013.5
20260504174307 60 359 5.2 9.6 0.00 0.20 0.18 94 1013.5
20260504173804 60 325 5.2 12.2 0.00 0.20 0.18 94 1013.6
20260504173306 60 359 6.1 12.2 0.00 0.21 0.18 94 1013.5
20260504172804 60 349 7.0 11.3 0.00 0.21 0.18 94 1013.5
20260504172303 60 335 6.1 11.3 0.00 0.21 0.18 94 1013.6
20260504171803 60 320 5.2 9.6 0.00 0.21 0.18 93 1013.5
20260504171301 60 293 4.3 8.7 0.00 0.21 0.18 93 1013.5
20260504170801 60 330 4.3 9.6 0.00 0.21 0.18 93 1013.4
20260504170316 60 314 4.3 9.6 0.00 0.21 0.18 93 1013.5
20260504160301 61 310 1.7 4.3 0.03 0.25 0.18 92 1013.5
20260504150746 62 263 1.7 3.5 0.02 0.23 0.16 92 1013.5
20260504150245 62 294 1.7 3.5 0.01 0.21 0.14 92 1013.5
20260504141243 62 29 2.6 3.5 0.13 0.29 0.13 93 1013.8
20260504140743 62 34 2.6 5.2 0.13 0.30 0.13 93 1013.8
20260504140240 62 51 1.7 5.2 0.13 0.30 0.13 93 1013.8
20260504120311 65 75 2.6 6.1 0.00 0.19 0.00 86 1014.1
20260504110318 63 354 0.9 3.5 0.00 0.24 0.00 89 1014.4
20260504100215 60 69 1.7 2.6 0.00 0.31 0.00 98 1014.6
20260504080702 58 118 0.0 1.7 0.00 0.43 0.00 99 1014.3
20260504080236 57 118 0.9 2.6 0.00 0.43 0.00 99 1014.3
20260504070156 56 178 0.9 4.3 0.00 0.43 0.00 99 1013.7
20260504060223 55 172 0.9 1.7 0.00 0.43 0.00 99 1013.5
20260504050634 54 127 0.9 2.6 0.00 0.43 0.00 99 1012.6
20260504050209 54 127 0.9 3.5 0.00 0.43 0.00 99 1012.6
20260504045131 54 139 0.9 1.7 0.00 0.43 0.00 99 1012.5
20260504044632 54 139 0.9 1.7 0.00 0.43 0.00 98 1012.6
20260504044135 54 139 0.0 1.7 0.00 0.43 0.00 98 1012.6
20260504043635 54 139 0.0 1.7 0.00 0.43 0.00 98 1012.5
20260504043136 54 139 0.0 1.7 0.00 0.43 0.00 98 1012.6
20260504042640 54 139 0.0 1.7 0.00 0.43 0.00 98 1012.6
20260504042131 54 139 0.0 0.9 0.00 0.43 0.00 98 1012.7
20260504041633 54 139 0.0 1.7 0.00 0.43 0.00 98 1012.7
20260504041131 54 139 0.9 1.7 0.00 0.43 0.00 98 1012.7
20260504040701 54 139 0.9 3.5 0.00 0.43 0.00 98 1012.8
20260504035657 54 139 0.9 1.7 0.00 0.43 0.00 98 1012.7
20260504034637 54 139 0.0 1.7 0.00 0.43 0.00 98 1012.7
20260504034209 54 139 0.9 1.7 0.00 0.43 0.00 98 1012.8
20260504033135 54 139 0.9 1.7 0.00 0.43 0.00 98 1012.8
20260504032632 54 139 0.0 1.7 0.00 0.43 0.00 98 1012.8
20260504032134 54 139 0.0 0.9 0.00 0.43 0.00 98 1012.9
20260504031656 54 139 0.0 0.9 0.00 0.43 0.00 98 1012.9
20260504030632 53 139 0.0 1.7 0.00 0.43 0.00 98 1013.0
20260504030132 53 139 0.0 1.7 0.00 0.43 0.00 98 1012.9
20260504025630 53 139 0.0 0.9 0.00 0.43 0.00 98 1012.9
20260504025130 53 139 0.0 0.9 0.00 0.43 0.00 98 1012.9
20260504024630 53 139 0.0 0.9 0.00 0.43 0.00 98 1012.9
20260504024130 53 139 0.0 1.7 0.00 0.43 0.00 98 1012.9
20260504023632 53 139 0.9 1.7 0.00 0.43 0.00 98 1012.7
20260504023129 53 139 0.9 1.7 0.00 0.43 0.00 98 1012.7
20260504022632 53 139 0.9 1.7 0.00 0.43 0.00 98 1012.6
20260504022131 52 139 0.0 1.7 0.00 0.43 0.00 98 1012.6
20260504021631 52 139 0.0 0.9 0.00 0.43 0.00 98 1012.6
20260504021141 52 139 0.9 1.7 0.00 0.43 0.00 98 1012.6
20260504020631 52 139 0.9 1.7 0.00 0.43 0.00 98 1012.6
20260504020129 52 139 0.9 1.7 0.00 0.43 0.00 97 1012.6
20260504015628 53 152 0.9 1.7 0.00 0.43 0.00 97 1012.5
20260504015204 53 152 0.9 1.7 0.00 0.43 0.00 97 1012.5
20260504014206 53 152 0.0 1.7 0.00 0.43 0.00 97 1012.6
20260504013136 53 152 0.0 1.7 0.00 0.43 0.00 98 1012.7
20260504012640 53 152 0.0 0.0 0.00 0.43 0.00 98 1012.6
20260504012130 52 152 0.0 0.9 0.00 0.43 0.00 97 1012.6
20260504011629 53 152 0.0 0.9 0.00 0.43 0.00 97 1012.6
20260504011130 53 152 0.0 0.9 0.00 0.43 0.00 97 1012.5
20260504010801 53 152 0.0 0.9 0.00 0.43 0.00 97 1012.4
20260504004628 53 184 0.9 0.9 0.00 0.43 0.00 97 1012.5
20260504004126 53 184 0.0 0.9 0.00 0.43 0.00 97 1012.4
20260504003642 54 185 0.0 0.9 0.00 0.43 0.00 97 1012.3
20260504002701 54 184 0.9 1.7 0.00 0.43 0.00 97 1012.2
20260504001615 54 184 0.0 1.7 0.00 0.43 0.00 97 1012.3
20260504001110 54 184 0.9 1.7 0.00 0.43 0.00 97 1012.4
20260504000611 54 184 0.9 1.7 0.00 0.43 0.00 97 1012.4
20260504000141 55 181 0.9 1.7 0.00 0.43 0.00 97 1012.5
20260503235146 55 181 0.0 1.7 0.00 0.43 0.00 97 1012.4
20260503234829 55 181 0.9 2.6 0.00 0.43 0.00 97 1012.5
20260503231604 56 181 2.6 5.2 0.00 0.43 0.00 97 1012.6
20260503231104 56 179 3.5 6.1 0.00 0.43 0.00 97 1012.8
20260503230613 56 148 3.5 6.1 0.00 0.43 0.00 97 1012.7
20260503230135 56 172 3.5 5.2 0.00 0.43 0.00 97 1012.7
20260503225100 55 186 1.7 5.2 0.00 0.43 0.00 97 1012.8
20260503224600 55 172 1.7 5.2 0.00 0.43 0.00 97 1012.7
20260503224120 55 166 0.9 3.5 0.00 0.43 0.00 97 1012.7
20260503223126 55 207 0.0 1.7 0.00 0.43 0.00 96 1012.6
20260503222126 55 207 0.0 1.7 0.00 0.43 0.00 96 1012.7
20260503221055 55 207 1.7 3.5 0.00 0.43 0.00 97 1012.8
20260503220553 55 202 1.7 2.6 0.00 0.43 0.00 96 1012.7
20260503220051 55 205 0.9 2.6 0.00 0.43 0.00 96 1012.6
20260503215550 55 183 0.9 2.6 0.00 0.43 0.43 96 1012.6
20260503215049 56 193 0.9 1.7 0.00 0.43 0.43 96 1012.6
20260503214621 56 187 0.9 1.7 0.00 0.43 0.43 96 1012.5
20260503213551 56 187 1.7 2.6 0.00 0.43 0.43 96 1012.5
20260503213046 56 177 1.7 4.3 0.00 0.44 0.43 96 1012.6
20260503212547 56 192 1.7 4.3 0.00 0.46 0.43 96 1012.5
20260503212049 56 181 1.7 4.3 0.00 0.49 0.43 96 1012.5
20260503211548 56 167 1.7 4.3 0.00 0.50 0.43 96 1012.6
20260503211047 56 184 1.7 4.3 0.00 0.51 0.43 96 1012.6
20260503210543 56 177 0.9 3.5 0.00 0.53 0.43 96 1012.5